owner,sensor,date,latitude,longitude,air_pressure(mBar),qcFlag 
TABS,ioos:station:wmo:42045:1,2016-11-01T00:00:00Z,26.2168,-96.4998,1014.23,11111222 
TABS,ioos:station:wmo:42045:1,2016-11-01T00:30:00Z,26.2168,-96.4998,1014.48,11111222 
TABS,ioos:station:wmo:42045:1,2016-11-01T01:00:00Z,26.2168,-96.4998,1014.59,11111222 
TABS,ioos:station:wmo:42045:1,2016-11-01T01:30:00Z,26.2168,-96.4998,1014.84,11111222 
TABS,ioos:station:wmo:42045:1,2016-11-01T02:00:00Z,26.2168,-96.4998,1014.75,11111222 
TABS,ioos:station:wmo:42045:1,2016-11-01T02:30:00Z,26.2168,-96.4998,1015.08,11111222 
TABS,ioos:station:wmo:42045:1,2016-11-01T03:00:00Z,26.2168,-96.4998,1015.26,11111222 
TABS,ioos:station:wmo:42045:1,2016-11-01T03:30:00Z,26.2168,-96.4998,1015.35,11111222 
TABS,ioos:station:wmo:42045:1,2016-11-01T04:00:00Z,26.2168,-96.4998,1015.12,11111222 
TABS,ioos:station:wmo:42045:1,2016-11-01T04:30:00Z,26.2168,-96.4998,1015.19,11111222 
TABS,ioos:station:wmo:42045:1,2016-11-01T05:00:00Z,26.2168,-96.4998,1015.12,11111222 
TABS,ioos:station:wmo:42045:1,2016-11-01T05:30:00Z,26.2168,-96.4998,1014.96,11111222 
TABS,ioos:station:wmo:42045:1,2016-11-01T06:00:00Z,26.2168,-96.4998,1014.94,11111222 
TABS,ioos:station:wmo:42045:1,2016-11-01T06:30:00Z,26.2168,-96.4998,1014.91,11111222 
TABS,ioos:station:wmo:42045:1,2016-11-01T07:00:00Z,26.2168,-96.4998,1015.05,11111222 
TABS,ioos:station:wmo:42045:1,2016-11-01T07:30:00Z,26.2168,-96.4998,1014.61,11111222 
TABS,ioos:station:wmo:42045:1,2016-11-01T08:00:00Z,26.2168,-96.4998,1014.41,11111222 
TABS,ioos:station:wmo:42045:1,2016-11-01T08:30:00Z,26.2168,-96.4998,1014.11,11111222 
TABS,ioos:station:wmo:42045:1,2016-11-01T09:00:00Z,26.2168,-96.4998,1014.1,11111222 
TABS,ioos:station:wmo:42045:1,2016-11-01T09:30:00Z,26.2168,-96.4998,1013.89,11111222 
TABS,ioos:station:wmo:42045:1,2016-11-01T10:00:00Z,26.2168,-96.4998,1013.89,11111222 
TABS,ioos:station:wmo:42045:1,2016-11-01T10:30:00Z,26.2168,-96.4998,1013.94,11111222 
TABS,ioos:station:wmo:42045:1,2016-11-01T11:00:00Z,26.2168,-96.4998,1013.78,11111222 
TABS,ioos:station:wmo:42045:1,2016-11-01T11:30:00Z,26.2168,-96.4998,1013.95,11111222 
TABS,ioos:station:wmo:42045:1,2016-11-01T12:00:00Z,26.2168,-96.4998,1014.1,11111222 
TABS,ioos:station:wmo:42045:1,2016-11-01T12:30:00Z,26.2168,-96.4998,1014.15,11111222 
TABS,ioos:station:wmo:42045:1,2016-11-01T13:00:00Z,26.2168,-96.4998,1014.46,11111222 
TABS,ioos:station:wmo:42045:1,2016-11-01T13:30:00Z,26.2168,-96.4998,1014.84,11111222 
TABS,ioos:station:wmo:42045:1,2016-11-01T14:00:00Z,26.2168,-96.4998,1015.46,11111222 
TABS,ioos:station:wmo:42045:1,2016-11-01T14:30:00Z,26.2168,-96.4998,1015.83,11111222 
TABS,ioos:station:wmo:42045:1,2016-11-01T15:00:00Z,26.2168,-96.4998,1015.66,11111222 
TABS,ioos:station:wmo:42045:1,2016-11-01T15:30:00Z,26.2168,-96.4998,1015.54,11111222 
TABS,ioos:station:wmo:42045:1,2016-11-01T16:00:00Z,26.2168,-96.4998,1015.74,11111222 
TABS,ioos:station:wmo:42045:1,2016-11-01T16:30:00Z,26.2168,-96.4998,1015.75,11111222 
TABS,ioos:station:wmo:42045:1,2016-11-01T17:00:00Z,26.2168,-96.4998,1015.55,11111222 
TABS,ioos:station:wmo:42045:1,2016-11-01T17:30:00Z,26.2168,-96.4998,1015.1,11111222 
TABS,ioos:station:wmo:42045:1,2016-11-01T18:00:00Z,26.2168,-96.4998,1014.85,11111222 
TABS,ioos:station:wmo:42045:1,2016-11-01T18:30:00Z,26.2168,-96.4998,1014.23,11111222 
TABS,ioos:station:wmo:42045:1,2016-11-01T19:00:00Z,26.2168,-96.4998,1013.92,11111222 
TABS,ioos:station:wmo:42045:1,2016-11-01T19:30:00Z,26.2168,-96.4998,1013.71,11111222 
TABS,ioos:station:wmo:42045:1,2016-11-01T20:00:00Z,26.2168,-96.4998,1013.43,11111222 
TABS,ioos:station:wmo:42045:1,2016-11-01T20:30:00Z,26.2168,-96.4998,1013.22,11111222 
TABS,ioos:station:wmo:42045:1,2016-11-01T21:00:00Z,26.2168,-96.4998,1013.48,11111222 
TABS,ioos:station:wmo:42045:1,2016-11-01T21:30:00Z,26.2168,-96.4998,1013.69,11111222 
TABS,ioos:station:wmo:42045:1,2016-11-01T22:00:00Z,26.2168,-96.4998,1013.58,11111222 
TABS,ioos:station:wmo:42045:1,2016-11-01T22:30:00Z,26.2168,-96.4998,1013.34,11111222 
TABS,ioos:station:wmo:42045:1,2016-11-01T23:00:00Z,26.2168,-96.4998,1013.46,11111222 
TABS,ioos:station:wmo:42045:1,2016-11-01T23:30:00Z,26.2168,-96.4998,1013.82,11111222 
TABS,ioos:station:wmo:42045:1,2016-11-02T00:00:00Z,26.2168,-96.4998,1014.06,11111222 
TABS,ioos:station:wmo:42045:1,2016-11-02T00:30:00Z,26.2168,-96.4998,1014.4,11111222 
TABS,ioos:station:wmo:42045:1,2016-11-02T01:00:00Z,26.2168,-96.4998,1014.45,11111222 
TABS,ioos:station:wmo:42045:1,2016-11-02T01:30:00Z,26.2168,-96.4998,1014.67,11111222 
TABS,ioos:station:wmo:42045:1,2016-11-02T02:00:00Z,26.2168,-96.4998,1014.91,11111222 
TABS,ioos:station:wmo:42045:1,2016-11-02T02:30:00Z,26.2168,-96.4998,1015.38,11111222 
TABS,ioos:station:wmo:42045:1,2016-11-02T03:00:00Z,26.2168,-96.4998,1015.52,11111222 
TABS,ioos:station:wmo:42045:1,2016-11-02T03:30:00Z,26.2168,-96.4998,1015.73,11111222 
TABS,ioos:station:wmo:42045:1,2016-11-02T04:00:00Z,26.2168,-96.4998,1015.84,11111222 
TABS,ioos:station:wmo:42045:1,2016-11-02T04:30:00Z,26.2168,-96.4998,1015.64,11111222 
TABS,ioos:station:wmo:42045:1,2016-11-02T05:00:00Z,26.2168,-96.4998,1015.11,11111222 
TABS,ioos:station:wmo:42045:1,2016-11-02T05:30:00Z,26.2168,-96.4998,1015.37,11111222 
TABS,ioos:station:wmo:42045:1,2016-11-02T06:00:00Z,26.2168,-96.4998,1015.09,11111222 
TABS,ioos:station:wmo:42045:1,2016-11-02T06:30:00Z,26.2168,-96.4998,1015.25,11111222 
TABS,ioos:station:wmo:42045:1,2016-11-02T07:00:00Z,26.2168,-96.4998,1015.24,11111222 
TABS,ioos:station:wmo:42045:1,2016-11-02T07:30:00Z,26.2168,-96.4998,1015.43,11111222 
TABS,ioos:station:wmo:42045:1,2016-11-02T08:00:00Z,26.2168,-96.4998,1014.77,11111222 
TABS,ioos:station:wmo:42045:1,2016-11-02T08:30:00Z,26.2168,-96.4998,1014.73,11111222 
TABS,ioos:station:wmo:42045:1,2016-11-02T09:00:00Z,26.2168,-96.4998,1014.38,11111222 
TABS,ioos:station:wmo:42045:1,2016-11-02T09:30:00Z,26.2168,-96.4998,1014.41,11111222 
TABS,ioos:station:wmo:42045:1,2016-11-02T10:00:00Z,26.2168,-96.4998,1014.22,11111222 
TABS,ioos:station:wmo:42045:1,2016-11-02T10:30:00Z,26.2168,-96.4998,1014.35,11111222 
TABS,ioos:station:wmo:42045:1,2016-11-02T11:00:00Z,26.2168,-96.4998,1014.39,11111222 
TABS,ioos:station:wmo:42045:1,2016-11-02T11:30:00Z,26.2168,-96.4998,1014.77,11111222 
TABS,ioos:station:wmo:42045:1,2016-11-02T12:00:00Z,26.2168,-96.4998,1015.21,11111222 
TABS,ioos:station:wmo:42045:1,2016-11-02T12:30:00Z,26.2168,-96.4998,1015.68,11111222 
TABS,ioos:station:wmo:42045:1,2016-11-02T13:00:00Z,26.2168,-96.4998,1016.28,11111222 
TABS,ioos:station:wmo:42045:1,2016-11-02T13:30:00Z,26.2168,-96.4998,1016.72,11111222 
TABS,ioos:station:wmo:42045:1,2016-11-02T14:00:00Z,26.2168,-96.4998,1017.2,11111222 
TABS,ioos:station:wmo:42045:1,2016-11-02T14:30:00Z,26.2168,-96.4998,1017.33,11111222 
TABS,ioos:station:wmo:42045:1,2016-11-02T15:00:00Z,26.2168,-96.4998,1017.52,11111222 
TABS,ioos:station:wmo:42045:1,2016-11-02T15:30:00Z,26.2168,-96.4998,1017.66,11111222 
TABS,ioos:station:wmo:42045:1,2016-11-02T16:00:00Z,26.2168,-96.4998,1017.65,11111222 
TABS,ioos:station:wmo:42045:1,2016-11-02T16:30:00Z,26.2168,-96.4998,1017.57,11111222 
TABS,ioos:station:wmo:42045:1,2016-11-02T17:00:00Z,26.2168,-96.4998,1017.37,11111222 
TABS,ioos:station:wmo:42045:1,2016-11-02T17:30:00Z,26.2168,-96.4998,1016.85,11111222 
TABS,ioos:station:wmo:42045:1,2016-11-02T18:00:00Z,26.2168,-96.4998,1016.66,11111222 
TABS,ioos:station:wmo:42045:1,2016-11-02T18:30:00Z,26.2168,-96.4998,1016.23,11111222 
TABS,ioos:station:wmo:42045:1,2016-11-02T19:00:00Z,26.2168,-96.4998,1016.0,11111222 
TABS,ioos:station:wmo:42045:1,2016-11-02T19:30:00Z,26.2168,-96.4998,1015.61,11111222 
TABS,ioos:station:wmo:42045:1,2016-11-02T20:00:00Z,26.2168,-96.4998,1015.32,11111222 
TABS,ioos:station:wmo:42045:1,2016-11-02T20:30:00Z,26.2168,-96.4998,1015.31,11111222 
TABS,ioos:station:wmo:42045:1,2016-11-02T21:00:00Z,26.2168,-96.4998,1015.5,11111222 
TABS,ioos:station:wmo:42045:1,2016-11-02T21:30:00Z,26.2168,-96.4998,1015.67,11111222 
TABS,ioos:station:wmo:42045:1,2016-11-02T22:00:00Z,26.2168,-96.4998,1015.79,11111222 
TABS,ioos:station:wmo:42045:1,2016-11-02T22:30:00Z,26.2168,-96.4998,1015.84,11111222 
TABS,ioos:station:wmo:42045:1,2016-11-02T23:00:00Z,26.2168,-96.4998,1016.21,11111222 
TABS,ioos:station:wmo:42045:1,2016-11-02T23:30:00Z,26.2168,-96.4998,1016.31,11111222 
TABS,ioos:station:wmo:42045:1,2016-11-03T00:00:00Z,26.2168,-96.4998,1016.46,11111222 
TABS,ioos:station:wmo:42045:1,2016-11-03T00:30:00Z,26.2168,-96.4998,1016.78,11111222 
TABS,ioos:station:wmo:42045:1,2016-11-03T01:00:00Z,26.2168,-96.4998,1016.9,11111222 
TABS,ioos:station:wmo:42045:1,2016-11-03T01:30:00Z,26.2168,-96.4998,1017.57,11111222 
TABS,ioos:station:wmo:42045:1,2016-11-03T02:00:00Z,26.2168,-96.4998,1017.95,11111222 
TABS,ioos:station:wmo:42045:1,2016-11-03T02:30:00Z,26.2168,-96.4998,1018.14,11111222 
TABS,ioos:station:wmo:42045:1,2016-11-03T03:00:00Z,26.2168,-96.4998,1018.3,11111222 
TABS,ioos:station:wmo:42045:1,2016-11-03T03:30:00Z,26.2168,-96.4998,1018.26,11111222 
TABS,ioos:station:wmo:42045:1,2016-11-03T04:00:00Z,26.2168,-96.4998,1018.09,11111222 
TABS,ioos:station:wmo:42045:1,2016-11-03T04:30:00Z,26.2168,-96.4998,1018.04,11111222 
TABS,ioos:station:wmo:42045:1,2016-11-03T05:00:00Z,26.2168,-96.4998,1017.92,11111222 
TABS,ioos:station:wmo:42045:1,2016-11-03T05:30:00Z,26.2168,-96.4998,1017.57,11111222 
TABS,ioos:station:wmo:42045:1,2016-11-03T06:00:00Z,26.2168,-96.4998,1017.81,11111222 
TABS,ioos:station:wmo:42045:1,2016-11-03T06:30:00Z,26.2168,-96.4998,1017.56,11111222 
TABS,ioos:station:wmo:42045:1,2016-11-03T07:00:00Z,26.2168,-96.4998,1017.87,11111222 
TABS,ioos:station:wmo:42045:1,2016-11-03T07:30:00Z,26.2168,-96.4998,1017.74,11111222 
TABS,ioos:station:wmo:42045:1,2016-11-03T08:00:00Z,26.2168,-96.4998,1017.61,11111222 
TABS,ioos:station:wmo:42045:1,2016-11-03T08:30:00Z,26.2168,-96.4998,1017.28,11111222 
TABS,ioos:station:wmo:42045:1,2016-11-03T09:00:00Z,26.2168,-96.4998,1017.22,11111222 
TABS,ioos:station:wmo:42045:1,2016-11-03T09:30:00Z,26.2168,-96.4998,1017.24,11111222 
TABS,ioos:station:wmo:42045:1,2016-11-03T10:00:00Z,26.2168,-96.4998,1016.96,11111222 
TABS,ioos:station:wmo:42045:1,2016-11-03T10:30:00Z,26.2168,-96.4998,1017.03,11111222 
TABS,ioos:station:wmo:42045:1,2016-11-03T11:00:00Z,26.2168,-96.4998,1017.57,11111222 
TABS,ioos:station:wmo:42045:1,2016-11-03T11:30:00Z,26.2168,-96.4998,1017.44,11111222 
TABS,ioos:station:wmo:42045:1,2016-11-03T12:00:00Z,26.2168,-96.4998,1017.69,11111222 
TABS,ioos:station:wmo:42045:1,2016-11-03T12:30:00Z,26.2168,-96.4998,1018.11,11111222 
TABS,ioos:station:wmo:42045:1,2016-11-03T13:00:00Z,26.2168,-96.4998,1018.6,11111222 
TABS,ioos:station:wmo:42045:1,2016-11-03T13:30:00Z,26.2168,-96.4998,1018.8,11111222 
TABS,ioos:station:wmo:42045:1,2016-11-03T14:00:00Z,26.2168,-96.4998,1019.13,11111222 
TABS,ioos:station:wmo:42045:1,2016-11-03T14:30:00Z,26.2168,-96.4998,1019.52,11111222 
TABS,ioos:station:wmo:42045:1,2016-11-03T15:00:00Z,26.2168,-96.4998,1020.05,11111222 
TABS,ioos:station:wmo:42045:1,2016-11-03T15:30:00Z,26.2168,-96.4998,1020.25,11111222 
TABS,ioos:station:wmo:42045:1,2016-11-03T16:00:00Z,26.2168,-96.4998,1019.95,11111222 
TABS,ioos:station:wmo:42045:1,2016-11-03T16:30:00Z,26.2168,-96.4998,1019.75,11111222 
TABS,ioos:station:wmo:42045:1,2016-11-03T17:00:00Z,26.2168,-96.4998,1019.69,11111222 
TABS,ioos:station:wmo:42045:1,2016-11-03T17:30:00Z,26.2168,-96.4998,1019.59,11111222 
TABS,ioos:station:wmo:42045:1,2016-11-03T18:00:00Z,26.2168,-96.4998,1019.61,11111222 
TABS,ioos:station:wmo:42045:1,2016-11-03T18:30:00Z,26.2168,-96.4998,1019.23,11111222 
TABS,ioos:station:wmo:42045:1,2016-11-03T19:00:00Z,26.2168,-96.4998,1018.95,11111222 
TABS,ioos:station:wmo:42045:1,2016-11-03T19:30:00Z,26.2168,-96.4998,1018.73,11111222 
TABS,ioos:station:wmo:42045:1,2016-11-03T20:00:00Z,26.2168,-96.4998,1018.59,11111222 
TABS,ioos:station:wmo:42045:1,2016-11-03T20:30:00Z,26.2168,-96.4998,1018.51,11111222 
TABS,ioos:station:wmo:42045:1,2016-11-03T21:00:00Z,26.2168,-96.4998,1018.52,11111222 
TABS,ioos:station:wmo:42045:1,2016-11-03T21:30:00Z,26.2168,-96.4998,1018.52,11111222 
TABS,ioos:station:wmo:42045:1,2016-11-03T22:00:00Z,26.2168,-96.4998,1018.5,11111222 
TABS,ioos:station:wmo:42045:1,2016-11-03T22:30:00Z,26.2168,-96.4998,1018.73,11111222 
TABS,ioos:station:wmo:42045:1,2016-11-03T23:00:00Z,26.2168,-96.4998,1018.83,11111222 
TABS,ioos:station:wmo:42045:1,2016-11-03T23:30:00Z,26.2168,-96.4998,1018.82,11111222 
TABS,ioos:station:wmo:42045:1,2016-11-04T00:00:00Z,26.2168,-96.4998,1018.94,11111222 
TABS,ioos:station:wmo:42045:1,2016-11-04T00:30:00Z,26.2168,-96.4998,1019.27,11111222 
TABS,ioos:station:wmo:42045:1,2016-11-04T01:00:00Z,26.2168,-96.4998,1019.22,11111222 
TABS,ioos:station:wmo:42045:1,2016-11-04T01:30:00Z,26.2168,-96.4998,1019.48,11111222 
TABS,ioos:station:wmo:42045:1,2016-11-04T02:00:00Z,26.2168,-96.4998,1019.62,11111222 
TABS,ioos:station:wmo:42045:1,2016-11-04T02:30:00Z,26.2168,-96.4998,1020.02,11111222 
TABS,ioos:station:wmo:42045:1,2016-11-04T03:00:00Z,26.2168,-96.4998,1020.28,11111222 
TABS,ioos:station:wmo:42045:1,2016-11-04T03:30:00Z,26.2168,-96.4998,1020.28,11111222 
TABS,ioos:station:wmo:42045:1,2016-11-04T04:00:00Z,26.2168,-96.4998,1020.42,11111222 
TABS,ioos:station:wmo:42045:1,2016-11-04T04:30:00Z,26.2168,-96.4998,1020.2,11111222 
TABS,ioos:station:wmo:42045:1,2016-11-04T05:00:00Z,26.2168,-96.4998,1020.12,11111222 
TABS,ioos:station:wmo:42045:1,2016-11-04T05:30:00Z,26.2168,-96.4998,1019.83,11111222 
TABS,ioos:station:wmo:42045:1,2016-11-04T06:00:00Z,26.2168,-96.4998,1019.61,11111222 
TABS,ioos:station:wmo:42045:1,2016-11-04T06:30:00Z,26.2168,-96.4998,1019.59,11111222 
TABS,ioos:station:wmo:42045:1,2016-11-04T07:00:00Z,26.2168,-96.4998,1019.33,11111222 
TABS,ioos:station:wmo:42045:1,2016-11-04T07:30:00Z,26.2168,-96.4998,1019.16,11111222 
TABS,ioos:station:wmo:42045:1,2016-11-04T08:00:00Z,26.2168,-96.4998,1019.04,11111222 
TABS,ioos:station:wmo:42045:1,2016-11-04T08:30:00Z,26.2168,-96.4998,1019.12,11111222 
TABS,ioos:station:wmo:42045:1,2016-11-04T09:00:00Z,26.2168,-96.4998,1018.89,11111222 
TABS,ioos:station:wmo:42045:1,2016-11-04T09:30:00Z,26.2168,-96.4998,1019.07,11111222 
TABS,ioos:station:wmo:42045:1,2016-11-04T10:00:00Z,26.2168,-96.4998,1019.14,11111222 
TABS,ioos:station:wmo:42045:1,2016-11-04T10:30:00Z,26.2168,-96.4998,1019.43,11111222 
TABS,ioos:station:wmo:42045:1,2016-11-04T11:00:00Z,26.2168,-96.4998,1019.75,11111222 
TABS,ioos:station:wmo:42045:1,2016-11-04T11:30:00Z,26.2168,-96.4998,1020.04,11111222 
TABS,ioos:station:wmo:42045:1,2016-11-04T12:00:00Z,26.2168,-96.4998,1020.51,11111222 
TABS,ioos:station:wmo:42045:1,2016-11-04T12:30:00Z,26.2168,-96.4998,1020.75,11111222 
TABS,ioos:station:wmo:42045:1,2016-11-04T13:00:00Z,26.2168,-96.4998,1021.11,11111222 
TABS,ioos:station:wmo:42045:1,2016-11-04T13:30:00Z,26.2168,-96.4998,1021.4,11111222 
TABS,ioos:station:wmo:42045:1,2016-11-04T14:00:00Z,26.2168,-96.4998,1021.71,11111222 
TABS,ioos:station:wmo:42045:1,2016-11-04T14:30:00Z,26.2168,-96.4998,1022.01,11111222 
TABS,ioos:station:wmo:42045:1,2016-11-04T15:00:00Z,26.2168,-96.4998,1022.35,11111222 
TABS,ioos:station:wmo:42045:1,2016-11-04T15:30:00Z,26.2168,-96.4998,1022.43,11111222 
TABS,ioos:station:wmo:42045:1,2016-11-04T16:00:00Z,26.2168,-96.4998,1022.49,11111222 
TABS,ioos:station:wmo:42045:1,2016-11-04T16:30:00Z,26.2168,-96.4998,1022.36,11111222 
TABS,ioos:station:wmo:42045:1,2016-11-04T17:00:00Z,26.2168,-96.4998,1022.21,11111222 
TABS,ioos:station:wmo:42045:1,2016-11-04T17:30:00Z,26.2168,-96.4998,1021.86,11111222 
TABS,ioos:station:wmo:42045:1,2016-11-04T18:00:00Z,26.2168,-96.4998,1021.65,11111222 
TABS,ioos:station:wmo:42045:1,2016-11-04T18:30:00Z,26.2168,-96.4998,1021.05,11111222 
TABS,ioos:station:wmo:42045:1,2016-11-04T19:00:00Z,26.2168,-96.4998,1020.8,11111222 
TABS,ioos:station:wmo:42045:1,2016-11-04T19:30:00Z,26.2168,-96.4998,1020.53,11111222 
TABS,ioos:station:wmo:42045:1,2016-11-04T20:00:00Z,26.2168,-96.4998,1020.31,11111222 
TABS,ioos:station:wmo:42045:1,2016-11-04T20:30:00Z,26.2168,-96.4998,1019.9,11111222 
TABS,ioos:station:wmo:42045:1,2016-11-04T21:00:00Z,26.2168,-96.4998,1019.8,11111222 
TABS,ioos:station:wmo:42045:1,2016-11-04T21:30:00Z,26.2168,-96.4998,1020.04,11111222 
TABS,ioos:station:wmo:42045:1,2016-11-04T22:00:00Z,26.2168,-96.4998,1019.88,11111222 
TABS,ioos:station:wmo:42045:1,2016-11-04T22:30:00Z,26.2168,-96.4998,1019.87,11111222 
TABS,ioos:station:wmo:42045:1,2016-11-04T23:00:00Z,26.2168,-96.4998,1019.98,11111222 
TABS,ioos:station:wmo:42045:1,2016-11-04T23:30:00Z,26.2168,-96.4998,1020.2,11111222 
TABS,ioos:station:wmo:42045:1,2016-11-05T00:00:00Z,26.2168,-96.4998,1020.42,11111222 
TABS,ioos:station:wmo:42045:1,2016-11-05T00:30:00Z,26.2168,-96.4998,1020.33,11111222 
TABS,ioos:station:wmo:42045:1,2016-11-05T01:00:00Z,26.2168,-96.4998,1020.35,11111222 
TABS,ioos:station:wmo:42045:1,2016-11-05T01:30:00Z,26.2168,-96.4998,1020.51,11111222 
TABS,ioos:station:wmo:42045:1,2016-11-05T02:00:00Z,26.2168,-96.4998,1020.73,11111222 
TABS,ioos:station:wmo:42045:1,2016-11-05T02:30:00Z,26.2168,-96.4998,1020.8,11111222 
TABS,ioos:station:wmo:42045:1,2016-11-05T03:00:00Z,26.2168,-96.4998,1021.06,11111222 
TABS,ioos:station:wmo:42045:1,2016-11-05T03:30:00Z,26.2168,-96.4998,1021.1,11111222 
TABS,ioos:station:wmo:42045:1,2016-11-05T04:00:00Z,26.2168,-96.4998,1021.15,11111222 
TABS,ioos:station:wmo:42045:1,2016-11-05T04:30:00Z,26.2168,-96.4998,1021.08,11111222 
TABS,ioos:station:wmo:42045:1,2016-11-05T05:00:00Z,26.2168,-96.4998,1021.11,11111222 
TABS,ioos:station:wmo:42045:1,2016-11-05T05:30:00Z,26.2168,-96.4998,1020.78,11111222 
TABS,ioos:station:wmo:42045:1,2016-11-05T06:00:00Z,26.2168,-96.4998,1020.75,11111222 
TABS,ioos:station:wmo:42045:1,2016-11-05T06:30:00Z,26.2168,-96.4998,1020.22,11111222 
TABS,ioos:station:wmo:42045:1,2016-11-05T07:00:00Z,26.2168,-96.4998,1020.24,11111222 
TABS,ioos:station:wmo:42045:1,2016-11-05T07:30:00Z,26.2168,-96.4998,1020.27,11111222 
TABS,ioos:station:wmo:42045:1,2016-11-05T08:00:00Z,26.2168,-96.4998,1019.87,11111222 
TABS,ioos:station:wmo:42045:1,2016-11-05T08:30:00Z,26.2168,-96.4998,1019.75,11111222 
TABS,ioos:station:wmo:42045:1,2016-11-05T09:00:00Z,26.2168,-96.4998,1019.55,11111222 
TABS,ioos:station:wmo:42045:1,2016-11-05T09:30:00Z,26.2168,-96.4998,1019.64,11111222 
TABS,ioos:station:wmo:42045:1,2016-11-05T10:00:00Z,26.2168,-96.4998,1019.65,11111222 
TABS,ioos:station:wmo:42045:1,2016-11-05T10:30:00Z,26.2168,-96.4998,1019.74,11111222 
TABS,ioos:station:wmo:42045:1,2016-11-05T11:00:00Z,26.2168,-96.4998,1019.77,11111222 
TABS,ioos:station:wmo:42045:1,2016-11-05T11:30:00Z,26.2168,-96.4998,1020.15,11111222 
TABS,ioos:station:wmo:42045:1,2016-11-05T12:00:00Z,26.2168,-96.4998,1020.16,11111222 
TABS,ioos:station:wmo:42045:1,2016-11-05T12:30:00Z,26.2168,-96.4998,1020.2,11111222 
TABS,ioos:station:wmo:42045:1,2016-11-05T13:00:00Z,26.2168,-96.4998,1020.56,11111222 
TABS,ioos:station:wmo:42045:1,2016-11-05T13:30:00Z,26.2168,-96.4998,1020.6,11111222 
TABS,ioos:station:wmo:42045:1,2016-11-05T14:00:00Z,26.2168,-96.4998,1021.04,11111222 
TABS,ioos:station:wmo:42045:1,2016-11-05T14:30:00Z,26.2168,-96.4998,1021.41,11111222 
TABS,ioos:station:wmo:42045:1,2016-11-05T15:00:00Z,26.2168,-96.4998,1021.8,11111222 
TABS,ioos:station:wmo:42045:1,2016-11-05T15:30:00Z,26.2168,-96.4998,1021.67,11111222 
TABS,ioos:station:wmo:42045:1,2016-11-05T16:00:00Z,26.2168,-96.4998,1021.57,11111222 
TABS,ioos:station:wmo:42045:1,2016-11-05T16:30:00Z,26.2168,-96.4998,1021.56,11111222 
TABS,ioos:station:wmo:42045:1,2016-11-05T17:00:00Z,26.2168,-96.4998,1021.31,11111222 
TABS,ioos:station:wmo:42045:1,2016-11-05T17:30:00Z,26.2168,-96.4998,1021.0,11111222 
TABS,ioos:station:wmo:42045:1,2016-11-05T18:00:00Z,26.2168,-96.4998,1020.49,11111222 
TABS,ioos:station:wmo:42045:1,2016-11-05T18:30:00Z,26.2168,-96.4998,1019.86,11111222 
TABS,ioos:station:wmo:42045:1,2016-11-05T19:00:00Z,26.2168,-96.4998,1019.45,11111222 
TABS,ioos:station:wmo:42045:1,2016-11-05T19:30:00Z,26.2168,-96.4998,1019.42,11111222 
TABS,ioos:station:wmo:42045:1,2016-11-05T20:00:00Z,26.2168,-96.4998,1018.91,11111222 
TABS,ioos:station:wmo:42045:1,2016-11-05T20:30:00Z,26.2168,-96.4998,1018.73,11111222 
TABS,ioos:station:wmo:42045:1,2016-11-05T21:00:00Z,26.2168,-96.4998,1018.48,11111222 
TABS,ioos:station:wmo:42045:1,2016-11-05T21:30:00Z,26.2168,-96.4998,1018.46,11111222 
TABS,ioos:station:wmo:42045:1,2016-11-05T22:00:00Z,26.2168,-96.4998,1018.8,11111222 
TABS,ioos:station:wmo:42045:1,2016-11-05T22:30:00Z,26.2168,-96.4998,1018.88,11111222 
TABS,ioos:station:wmo:42045:1,2016-11-05T23:00:00Z,26.2168,-96.4998,1018.88,11111222 
TABS,ioos:station:wmo:42045:1,2016-11-05T23:30:00Z,26.2168,-96.4998,1018.85,11111222 
TABS,ioos:station:wmo:42045:1,2016-11-06T00:00:00Z,26.2168,-96.4998,1018.97,11111222 
TABS,ioos:station:wmo:42045:1,2016-11-06T00:30:00Z,26.2168,-96.4998,1019.34,11111222 
TABS,ioos:station:wmo:42045:1,2016-11-06T01:00:00Z,26.2168,-96.4998,1019.47,11111222 
TABS,ioos:station:wmo:42045:1,2016-11-06T01:30:00Z,26.2168,-96.4998,1019.67,11111222 
TABS,ioos:station:wmo:42045:1,2016-11-06T02:00:00Z,26.2168,-96.4998,1019.76,11111222 
TABS,ioos:station:wmo:42045:1,2016-11-06T02:30:00Z,26.2168,-96.4998,1019.94,11111222 
TABS,ioos:station:wmo:42045:1,2016-11-06T03:00:00Z,26.2168,-96.4998,1019.96,11111222 
TABS,ioos:station:wmo:42045:1,2016-11-06T03:30:00Z,26.2168,-96.4998,1019.84,11111222 
TABS,ioos:station:wmo:42045:1,2016-11-06T04:00:00Z,26.2168,-96.4998,1020.07,11111222 
TABS,ioos:station:wmo:42045:1,2016-11-06T04:30:00Z,26.2168,-96.4998,1019.89,11111222 
TABS,ioos:station:wmo:42045:1,2016-11-06T05:00:00Z,26.2168,-96.4998,1019.8,11111222 
TABS,ioos:station:wmo:42045:1,2016-11-06T05:30:00Z,26.2168,-96.4998,1019.69,11111222 
TABS,ioos:station:wmo:42045:1,2016-11-06T06:00:00Z,26.2168,-96.4998,1019.32,11111222 
TABS,ioos:station:wmo:42045:1,2016-11-06T06:30:00Z,26.2168,-96.4998,1019.16,11111222 
TABS,ioos:station:wmo:42045:1,2016-11-06T07:00:00Z,26.2168,-96.4998,1018.93,11111222 
TABS,ioos:station:wmo:42045:1,2016-11-06T07:30:00Z,26.2168,-96.4998,1018.36,11111222 
TABS,ioos:station:wmo:42045:1,2016-11-06T08:00:00Z,26.2168,-96.4998,1018.19,11111222 
TABS,ioos:station:wmo:42045:1,2016-11-06T08:30:00Z,26.2168,-96.4998,1017.99,11111222 
TABS,ioos:station:wmo:42045:1,2016-11-06T09:00:00Z,26.2168,-96.4998,1017.96,11111222 
TABS,ioos:station:wmo:42045:1,2016-11-06T09:30:00Z,26.2168,-96.4998,1017.89,11111222 
TABS,ioos:station:wmo:42045:1,2016-11-06T10:00:00Z,26.2168,-96.4998,1018.03,11111222 
TABS,ioos:station:wmo:42045:1,2016-11-06T10:30:00Z,26.2168,-96.4998,1017.85,11111222 
TABS,ioos:station:wmo:42045:1,2016-11-06T11:00:00Z,26.2168,-96.4998,1017.83,11111222 
TABS,ioos:station:wmo:42045:1,2016-11-06T11:30:00Z,26.2168,-96.4998,1018.03,11111222 
TABS,ioos:station:wmo:42045:1,2016-11-06T12:00:00Z,26.2168,-96.4998,1018.12,11111222 
TABS,ioos:station:wmo:42045:1,2016-11-06T12:30:00Z,26.2168,-96.4998,1018.59,11111222 
TABS,ioos:station:wmo:42045:1,2016-11-06T13:00:00Z,26.2168,-96.4998,1018.56,11111222 
TABS,ioos:station:wmo:42045:1,2016-11-06T13:30:00Z,26.2168,-96.4998,1018.72,11111222 
TABS,ioos:station:wmo:42045:1,2016-11-06T14:00:00Z,26.2168,-96.4998,1019.01,11111222 
TABS,ioos:station:wmo:42045:1,2016-11-06T14:30:00Z,26.2168,-96.4998,1019.43,11111222 
TABS,ioos:station:wmo:42045:1,2016-11-06T15:00:00Z,26.2168,-96.4998,1019.39,11111222 
TABS,ioos:station:wmo:42045:1,2016-11-06T15:30:00Z,26.2168,-96.4998,1019.63,11111222 
TABS,ioos:station:wmo:42045:1,2016-11-06T16:00:00Z,26.2168,-96.4998,1019.73,11111222 
TABS,ioos:station:wmo:42045:1,2016-11-06T16:30:00Z,26.2168,-96.4998,1019.66,11111222 
TABS,ioos:station:wmo:42045:1,2016-11-06T17:00:00Z,26.2168,-96.4998,1019.58,11111222 
TABS,ioos:station:wmo:42045:1,2016-11-06T17:30:00Z,26.2168,-96.4998,1019.09,11111222 
TABS,ioos:station:wmo:42045:1,2016-11-06T18:00:00Z,26.2168,-96.4998,1018.48,11111222 
TABS,ioos:station:wmo:42045:1,2016-11-06T18:30:00Z,26.2168,-96.4998,1017.87,11111222 